Location: Les Thiberg�res
(47.8554°N, 1.0978°W)
Time: 19:35:23
(UTC+00:00)

Cosmos 1484 Rocket - Pass Details

Date: 17 February 2020
Orbit: 506 x 559 km, 97.4° (Epoch: 07 April)

Event Time Altitude Azimuth Distance (km) Brightness Sun altitude
Rises 05:10:00 0° 12° (NNE) 2,711 6.6 -20.4°
Reaches altitude 10° 05:12:06 10° 12° (NNE) 1,822 5.6 -20.1°
Maximum altitude 05:16:03 86° 287° (WNW) 558 2.7 -19.4°
Drops below altitude 10° 05:20:02 10° 196° (SSW) 1,832 5.3 -18.8°
Enters shadow 05:20:26 - 196° (SSW) 2,003 5.5 -18.7°
